Theta_e
322 322 321 322 322 321 322 324 323 322 321 321 322 322 321 321 322 322 323 321 321 320 320 320 321 321 320 319 319 318 318 318 318 318 318 317 316 315 316 316 316 316 315 313 311 309 308 307 307 307 308 308 309 309 309 309 309 308 308 308 306 306 305 305 304 304 304 304 304
321 321 321 322 322 321 322 324 323 322 322 323 324 324 323 321 322 323 322 320 320 320 321 321 321 320 320 320 319 319 319 319 318 318 317 316 316 316 317 317 316 315 313 310 309 307 306 306 306 307 308 308 308 308 308 309 308 307 307 306 306 305 305 303 304 304 304 304 303
321 321 321 321 320 321 321 321 321 321 321 322 324 324 324 323 323 323 322 320 320 320 321 321 321 321 321 320 321 321 320 320 320 320 319 318 317 316 315 313 312 312 311 309 307 306 306 306 308 309 309 309 308 308 309 309 308 308 307 306 306 305 305 304 304 304 304 303 302
321 321 321 320 320 320 320 321 321 320 320 321 323 324 324 323 323 322 321 320 320 320 320 321 321 322 322 321 321 321 320 320 319 318 317 315 314 312 311 310 310 311 311 309 307 307 306 307 309 309 309 309 309 309 309 309 308 307 306 306 306 305 305 304 304 304 303 303 302
320 321 321 321 320 321 321 320 321 320 321 321 321 323 323 324 323 322 320 320 320 320 321 320 321 322 321 321 321 320 319 317 317 316 315 314 314 314 313 313 312 310 309 309 309 308 309 309 309 309 309 308 308 308 308 308 307 306 306 306 306 305 305 304 304 304 303 303 301
320 320 320 321 321 321 321 321 321 321 321 321 321 321 322 324 322 321 320 319 320 320 320 320 320 320 321 321 320 319 317 316 315 315 314 315 315 314 314 313 312 311 310 311 311 311 311 311 310 309 308 307 306 306 307 308 308 307 306 306 306 305 304 303 304 304 302 302 300
320 320 320 321 321 321 321 321 321 321 321 321 321 321 321 322 321 320 319 320 319 319 319 320 320 320 321 321 320 318 317 315 314 314 313 313 314 313 311 311 311 312 312 312 311 311 310 310 308 308 307 307 306 306 306 306 307 306 306 306 305 304 302 302 302 301 299 298 299
319 319 320 321 321 321 321 321 321 321 321 321 321 320 320 321 320 320 319 320 319 319 319 320 320 320 320 320 319 318 316 314 313 312 311 311 311 310 310 311 311 312 312 311 311 310 310 309 307 306 306 306 306 306 305 304 304 303 303 302 301 301 300 299 298 297 297 298 300
318 319 319 320 320 321 320 320 321 321 321 321 320 321 321 321 320 320 319 319 319 320 320 319 319 319 318 318 318 317 315 314 313 312 311 311 310 310 310 310 310 310 310 310 310 310 309 307 307 306 306 306 306 305 303 303 302 301 300 299 299 299 299 300 300 299 299 299 298
318 318 319 320 320 320 320 320 320 321 320 320 320 320 321 320 320 319 319 319 318 319 319 319 318 317 316 316 317 316 316 314 313 312 311 311 311 310 310 309 309 309 310 310 309 308 307 306 306 306 306 306 304 303 302 302 301 300 300 300 299 299 300 300 300 299 298 296 295
318 319 319 319 320 320 320 319 319 319 320 319 320 320 321 320 319 318 318 318 318 317 317 317 317 316 315 315 315 316 316 315 313 312 312 311 311 310 310 309 309 309 308 307 307 307 306 306 306 306 305 305 303 302 300 300 299 298 297 297 297 296 295 295 295 294 294 294 293
318 319 319 319 319 319 319 319 319 318 319 319 320 320 319 320 318 318 317 317 317 316 316 316 315 315 314 314 314 315 314 314 313 312 312 311 310 310 309 309 308 307 306 306 306 306 306 306 305 304 303 301 300 299 298 297 297 296 296 295 295 295 295 294 294 294 294 293 293
318 318 319 319 319 319 319 318 318 318 319 319 319 319 319 319 318 317 317 316 316 315 315 315 315 314 314 314 314 313 312 312 312 312 311 310 309 308 308 307 306 306 305 305 305 304 304 303 301 299 298 297 297 297 297 296 296 295 295 294 294 294 293 292 292 292 292 292 292
318 319 318 319 319 319 318 317 317 318 318 318 318 318 317 318 317 317 316 315 315 314 314 314 314 314 314 314 313 312 312 312 311 310 309 308 307 306 305 305 304 304 303 303 302 301 300 299 298 297 297 296 296 296 296 296 295 295 294 294 293 293 292 291 291 290 290 290 290
318 318 319 319 318 317 317 316 316 317 317 317 316 316 316 317 317 316 316 315 314 313 313 313 313 313 313 313 312 312 311 310 308 307 306 305 304 303 303 302 302 301 301 300 300 299 298 298 297 297 296 295 295 295 295 295 294 294 293 292 292 291 291 290 289 289 289 289 288
318 318 318 318 317 316 316 315 316 316 316 315 315 315 315 315 315 315 314 313 313 312 312 311 310 309 309 309 309 308 307 306 304 303 303 302 302 301 301 300 300 299 299 298 298 297 297 297 296 296 295 295 294 294 294 293 293 292 291 291 290 290 290 290 289 289 288 288 287
318 317 317 316 315 315 315 314 314 315 314 314 314 314 314 313 313 313 313 312 311 310 308 307 305 304 304 304 304 304 303 303 303 302 302 301 301 300 299 298 298 297 296 295 296 296 296 296 296 295 295 294 293 293 292 292 291 291 290 289 289 288 289 289 289 288 288 288 287
316 315 315 314 314 313 313 313 313 313 313 313 313 313 312 311 311 311 310 310 309 307 305 304 303 302 302 301 302 302 302 302 302 301 301 300 299 298 297 295 294 294 293 293 293 294 294 294 294 294 294 293 292 291 291 290 290 289 288 288 288 287 287 288 288 288 287 287 287
314 313 313 312 312 312 312 313 312 312 312 311 311 311 310 309 308 308 307 307 305 304 303 302 301 301 301 301 302 302 302 301 300 300 299 298 297 295 294 293 292 291 291 290 291 291 292 292 293 293 292 292 291 290 289 289 289 288 288 287 287 286 286 286 286 286 286 286 286
312 312 311 311 311 311 311 311 311 310 309 309 307 307 306 306 305 304 304 303 303 302 301 300 301 301 301 301 301 301 300 300 299 297 296 295 294 293 292 291 290 290 289 289 289 289 290 290 290 290 290 290 289 288 288 288 287 287 287 286 286 286 286 286 286 286 285 285 285
311 311 310 310 310 310 309 309 308 307 306 305 304 303 303 303 302 302 301 301 301 300 300 300 300 300 300 300 299 299 298 298 297 295 295 294 293 292 291 291 290 290 289 288 288 288 288 288 288 287 287 287 287 287 287 287 286 286 286 286 286 285 285 285 285 285 285 285 285
309 309 308 309 308 308 307 306 305 304 304 303 302 302 301 301 301 301 300 300 300 299 299 299 299 299 298 298 298 297 297 297 296 295 294 293 293 292 292 291 290 290 289 288 287 287 287 287 285 284 283 283 285 286 286 286 286 286 285 285 285 285 284 284 285 285 285 285 285
307 307 307 307 306 306 305 305 303 303 302 302 301 301 300 300 300 300 300 300 300 299 299 298 298 298 297 297 297 297 296 296 295 295 294 293 293 292 292 291 291 290 290 289 287 286 286 285 284 283 281 281 284 285 286 286 286 285 284 284 284 284 284 283 284 284 284 285 285
305 305 305 306 304 304 304 303 302 301 301 301 300 300 300 299 299 299 299 299 298 298 298 298 298 297 297 297 297 297 296 296 295 294 294 293 292 292 292 291 291 290 290 290 290 290 288 287 285 283 283 282 284 285 286 286 285 285 284 284 284 284 283 283 283 283 284 284 284
304 304 304 303 303 302 302 301 301 300 300 299 299 299 299 298 298 298 298 298 297 297 297 297 297 297 297 297 297 297 296 296 295 294 293 293 292 292 292 291 291 291 291 294 296 296 295 294 290 287 285 284 285 286 286 286 286 285 285 285 285 284 283 283 283 283 283 283 283
303 302 302 301 301 301 300 299 299 298 298 298 298 298 297 297 297 297 297 297 296 296 296 296 296 297 297 296 296 296 296 296 295 294 293 293 292 292 292 291 291 291 291 295 296 297 297 297 295 292 288 285 286 286 286 286 286 286 285 285 285 284 283 283 283 283 283 283 283
301 301 300 300 300 299 298 298 298 297 297 297 296 296 296 296 297 296 296 295 295 295 295 295 296 297 297 296 295 295 295 295 294 294 293 293 292 291 291 291 291 291 292 296 297 297 297 297 296 295 292 287 286 286 286 286 285 285 285 285 284 283 283 282 282 282 282 282 282
300 300 299 299 298 298 297 297 297 296 296 296 296 296 295 295 295 295 295 294 294 294 294 294 295 295 295 295 295 294 294 294 294 294 293 293 292 291 291 291 290 292 294 297 297 297 297 297 296 296 294 291 287 286 286 286 286 285 285 284 284 283 282 281 281 281 281 281 282
299 299 299 298 297 297 297 296 296 295 295 295 295 295 294 294 294 294 293 293 293 293 293 293 294 294 294 293 293 293 293 293 293 293 293 292 292 291 291 290 290 292 295 297 297 296 296 296 296 296 295 293 289 287 286 286 285 285 284 284 283 282 281 281 280 280 280 280 281
299 298 298 297 297 296 296 295 295 295 295 295 294 294 293 293 293 293 293 293 292 292 292 292 292 292 292 292 292 292 292 292 292 293 292 292 291 291 291 291 290 292 294 297 296 296 296 296 295 295 295 294 290 287 285 285 285 284 283 283 282 281 281 280 280 279 279 280 280
298 297 297 296 296 295 295 295 294 294 294 294 293 293 292 292 292 291 291 291 291 292 292 291 291 291 291 291 291 291 291 291 291 292 292 292 292 291 290 290 290 291 294 296 296 295 295 295 295 295 294 294 291 287 285 285 284 283 283 282 281 281 280 280 280 279 279 279 279
297 297 296 296 295 295 294 294 294 293 293 292 292 292 291 291 291 290 290 290 291 291 290 290 290 290 290 290 290 290 290 291 291 291 291 291 291 290 290 290 290 292 294 296 296 295 295 295 295 294 294 293 291 287 284 284 284 283 282 282 281 281 281 281 280 279 279 279 279
296 296 295 295 294 294 294 293 293 293 292 292 291 291 290 290 289 289 289 289 289 289 288 288 289 289 288 288 289 289 289 290 291 291 292 291 290 290 290 290 291 293 295 295 295 295 295 295 294 294 294 293 290 286 284 284 283 283 282 281 281 281 280 280 279 279 279 279 280
296 295 295 294 294 293 293 292 292 292 291 291 290 290 289 288 288 288 288 288 288 288 287 287 287 287 288 288 288 288 289 291 290 290 290 290 290 289 289 290 291 294 295 295 295 295 294 294 294 294 293 292 289 286 284 283 282 282 281 281 281 280 280 280 279 279 279 279 280
295 295 294 293 293 293 292 292 291 291 290 290 289 289 288 287 287 287 287 288 288 287 286 286 286 286 287 287 287 288 289 289 289 289 290 290 289 289 289 289 291 293 294 294 294 294 294 294 294 293 292 290 287 285 283 282 281 281 280 280 280 280 280 280 279 279 278 278 279
295 294 293 293 292 292 292 291 291 290 290 289 288 288 287 286 286 287 287 288 287 286 285 286 286 286 286 286 287 287 288 288 289 289 289 289 288 288 287 287 289 291 293 294 294 294 294 293 293 292 291 288 285 284 282 282 281 280 280 280 279 279 279 280 279 279 278 277 279
294 294 293 292 292 291 291 291 290 289 289 288 287 287 286 286 286 286 287 287 286 285 285 285 285 285 285 286 286 286 287 287 288 289 289 289 288 287 286 286 286 289 292 293 293 293 293 293 292 291 289 286 284 283 282 281 280 280 279 279 279 279 279 279 279 278 278 278 280
294 293 293 292 292 291 291 290 289 289 288 287 286 286 286 286 285 286 286 287 286 285 285 285 285 285 285 286 286 286 287 288 288 288 288 287 287 286 286 285 285 287 290 293 293 293 292 292 291 290 288 285 283 282 281 280 280 279 279 279 278 278 278 278 278 278 279 280 284
294 293 293 292 291 291 290 289 289 288 287 287 286 286 286 285 285 286 286 287 285 285 285 285 285 285 286 287 287 287 287 287 288 288 287 287 287 287 286 284 284 286 289 292 292 292 292 292 291 290 288 285 282 281 280 280 279 278 278 278 278 278 278 278 278 278 279 280 284
294 293 293 292 291 291 290 289 288 288 287 287 286 286 286 285 286 286 286 286 285 285 285 285 285 286 287 288 287 287 286 286 287 287 287 287 288 288 287 285 284 285 288 291 292 292 292 291 291 290 288 285 282 281 280 279 278 278 277 277 277 277 277 277 277 277 278 278 281
294 293 292 292 291 290 289 288 288 287 287 286 286 286 286 286 286 286 286 286 285 285 285 286 286 286 287 288 287 286 285 285 285 286 287 287 287 287 287 284 283 284 286 289 291 292 292 291 291 290 288 285 282 280 279 278 277 277 276 276 276 276 276 276 277 277 277 277 278
Wind_Speed
6 5 5 4 4 4 4 3 4 3 3 3 3 3 3 3 3 3 4 4 4 4 4 3 3 4 5 6 6 6 6 6 6 5 5 6 5 5 4 4 4 5 6 6 5 4 3 3 3 2 2 2 2 1 1 1 1 1 1 1 2 2 2 1 1 1 2 2 1
6 6 5 5 4 4 3 4 4 3 3 2 3 3 3 2 3 4 4 4 4 4 3 3 3 4 5 6 6 6 6 7 7 7 6 6 6 5 5 4 5 6 6 6 5 4 3 3 3 2 2 2 1 1 1 0 1 2 2 2 2 2 1 1 1 2 2 1 0
7 6 6 5 4 4 4 4 3 3 2 2 3 3 3 2 3 4 4 4 3 3 2 2 3 4 5 5 4 4 4 4 5 5 5 5 5 5 5 5 6 7 6 6 5 4 4 3 3 2 2 1 1 1 1 1 2 2 2 1 1 1 1 1 1 1 0 0 1
7 7 6 6 6 5 5 4 4 3 3 2 3 3 3 3 4 4 3 3 3 3 2 3 4 5 5 5 6 6 7 7 7 7 7 6 6 6 6 6 6 6 6 5 5 5 4 4 3 2 2 1 1 1 2 2 2 2 2 2 2 2 2 1 1 1 1 1 1
7 7 6 6 7 6 5 5 5 4 3 2 2 3 3 3 4 4 3 3 2 2 3 4 5 5 5 6 8 9 9 8 8 7 6 6 6 6 6 6 6 5 5 5 5 5 4 4 2 2 2 2 2 2 2 3 3 3 2 2 2 2 2 1 1 1 1 1 1
7 7 7 6 7 6 6 5 6 5 4 3 3 3 4 4 4 4 3 3 2 3 4 5 6 6 6 8 9 9 8 6 6 5 5 5 5 5 6 6 6 5 4 4 4 4 4 4 2 2 2 2 1 2 2 4 3 2 2 2 2 2 2 2 2 2 1 1 0
7 7 7 7 7 7 6 6 6 5 5 4 4 4 5 5 5 5 5 4 3 3 3 4 5 6 7 8 8 8 7 6 5 5 5 5 5 5 5 5 5 4 4 3 3 4 4 3 2 2 1 1 1 1 2 3 2 2 1 1 1 2 2 2 2 2 2 1 2
6 7 7 8 8 8 7 6 6 5 5 4 5 6 6 7 7 7 6 5 4 3 2 3 4 6 7 8 8 7 7 6 6 5 5 4 4 5 5 4 4 4 4 3 3 3 3 2 2 1 1 1 1 1 2 2 2 1 0 0 0 1 1 1 1 2 2 2 3
5 6 7 8 8 7 7 7 6 6 6 6 6 6 7 8 8 7 6 5 4 3 3 4 7 8 9 8 8 7 6 6 6 5 4 4 4 4 4 4 4 3 3 3 3 3 3 3 2 1 1 1 1 2 2 3 2 2 1 1 1 1 0 0 1 1 1 1 1
6 6 7 7 7 7 7 6 6 6 6 6 6 7 7 8 7 6 5 3 4 4 5 7 9 9 8 7 7 6 6 6 5 5 5 4 4 3 3 3 3 3 3 3 3 3 3 2 2 1 1 2 2 3 3 3 2 2 2 1 2 3 3 4 4 3 3 3 4
6 6 6 6 7 7 6 5 5 5 5 6 7 8 8 8 6 5 4 4 6 7 7 7 8 8 7 6 6 5 5 5 5 5 5 4 4 4 4 4 4 4 4 3 3 3 2 2 2 3 3 4 4 4 4 4 4 4 4 4 5 6 7 7 6 6 5 5 6
6 6 6 6 7 7 6 5 4 5 6 8 9 8 8 7 7 6 7 8 8 8 7 6 7 7 6 5 5 5 5 5 5 5 5 5 4 4 5 5 5 5 5 4 4 3 4 5 6 6 7 7 6 6 7 7 7 8 8 8 8 8 8 7 7 6 6 6 6
6 6 6 7 7 7 6 5 4 5 7 9 8 7 7 7 8 8 8 8 8 6 6 6 6 6 6 5 5 4 4 4 5 5 5 5 5 5 6 6 7 7 7 7 7 7 7 8 8 9 9 8 7 7 8 9 9 9 9 9 8 8 8 8 7 7 7 7 7
7 7 6 7 7 6 5 5 5 6 8 9 8 7 7 7 8 8 8 8 7 6 5 5 5 5 5 5 4 4 4 5 6 6 7 7 7 8 8 9 9 9 9 9 9 9 9 8 8 9 9 9 8 8 8 8 8 8 8 8 8 8 8 8 8 8 8 8 8
7 7 7 6 6 6 5 5 5 7 8 8 7 6 6 7 7 7 7 7 7 6 5 5 5 5 5 5 5 5 6 7 8 9 10 10 11 11 11 11 10 10 9 9 9 9 9 9 9 8 8 8 8 8 8 8 8 8 8 8 8 8 8 8 8 8 8 8 7
7 7 6 5 6 6 6 6 6 7 8 7 7 6 6 6 6 6 7 7 6 6 6 6 6 6 6 6 8 9 9 10 11 11 11 11 12 12 12 11 11 10 9 9 9 9 9 8 8 8 8 8 8 8 8 8 8 8 8 8 8 7 7 7 7 7 7 7 7
7 7 6 6 7 8 8 8 7 7 7 7 7 7 6 6 5 6 6 6 6 7 7 8 8 8 8 9 9 9 10 10 11 11 11 12 12 13 12 12 11 10 9 9 9 9 8 8 8 7 7 7 7 7 8 8 8 8 8 8 7 7 7 7 7 7 6 7 7
7 7 7 8 9 10 10 9 8 8 7 7 7 6 6 6 6 6 6 7 8 9 9 9 8 8 9 9 9 9 9 11 11 12 12 13 13 13 12 11 11 10 10 9 9 9 9 8 7 7 7 7 7 7 7 8 7 7 7 7 7 6 6 6 6 6 6 6 6
7 8 9 10 10 10 10 9 8 8 8 7 7 7 7 7 7 8 8 8 9 9 10 9 9 9 9 10 10 10 10 12 13 13 13 13 13 12 12 11 10 10 10 9 9 9 8 8 7 7 7 6 7 7 7 7 7 7 6 6 6 5 5 5 5 5 5 4 4
8 9 9 10 10 10 9 9 9 8 8 8 8 9 9 9 9 9 9 9 9 9 10 9 9 10 10 11 11 11 11 11 13 13 13 13 12 11 11 10 10 10 9 8 8 8 7 7 7 6 6 6 6 7 7 7 7 6 6 5 5 4 4 4 4 4 4 4 3
9 9 9 9 9 9 9 9 9 9 10 10 10 10 10 10 10 10 9 9 9 9 10 10 10 11 11 11 11 11 11 11 12 12 12 12 11 11 10 9 9 9 8 7 7 7 7 6 6 6 5 5 6 6 6 6 6 6 5 5 4 4 3 3 3 4 4 4 3
9 9 9 9 10 10 10 10 10 10 11 11 10 10 10 10 10 10 10 10 10 10 10 10 10 10 10 10 11 11 10 10 11 11 11 11 10 10 9 8 8 8 7 7 6 6 6 6 5 5 5 4 5 6 6 6 6 5 5 5 5 4 4 3 3 4 4 5 4
9 9 9 9 10 10 11 11 11 11 11 11 10 10 10 10 10 10 10 10 10 10 10 9 9 9 10 10 10 11 11 11 11 11 11 10 10 9 8 8 8 7 7 6 5 5 5 5 5 5 4 4 4 5 6 6 5 5 5 5 6 6 6 5 5 5 6 7 6
9 9 9 9 10 11 11 11 11 11 11 10 10 10 10 10 10 10 10 10 10 9 9 8 8 9 9 10 10 11 11 12 12 11 11 10 10 9 8 7 7 7 6 5 6 6 6 5 4 4 3 3 4 4 5 5 6 6 6 6 6 7 7 7 7 7 7 8 8
10 10 10 10 10 11 11 11 11 11 10 10 10 10 10 10 10 10 10 10 9 9 9 8 8 7 8 8 9 10 10 11 12 12 11 10 10 8 8 7 6 5 5 7 11 12 11 8 6 4 3 3 4 4 5 6 6 6 6 6 7 7 7 8 8 8 8 8 8
10 11 11 11 11 11 11 11 11 11 10 10 10 10 10 10 10 10 10 10 9 9 8 8 8 7 7 7 8 9 10 10 11 11 11 10 10 8 7 6 5 5 6 10 13 14 13 12 11 8 5 3 4 5 5 5 6 7 7 7 7 7 7 7 8 8 8 8 8
11 11 11 11 11 11 11 11 11 10 10 10 10 10 10 9 9 10 10 9 9 8 8 7 7 7 7 7 9 10 10 10 11 11 11 10 10 8 7 6 5 5 7 12 14 14 13 13 12 10 8 4 4 5 5 5 6 6 6 6 6 7 7 7 7 7 7 8 8
11 11 11 12 12 11 11 11 11 11 10 10 10 10 10 10 10 10 9 8 8 7 7 6 6 6 6 7 8 10 10 10 10 10 10 10 9 8 7 6 5 7 10 14 14 14 13 13 12 11 9 6 5 5 5 6 6 6 5 5 6 6 6 6 6 6 6 7 7
11 12 12 12 12 11 11 11 11 11 10 10 10 10 10 10 10 9 9 8 8 7 6 5 5 5 6 6 8 9 10 10 10 10 10 10 9 8 7 6 6 8 12 15 14 13 13 12 12 11 11 9 6 5 5 5 5 4 4 4 5 6 6 6 5 5 6 6 6
12 12 12 12 12 11 11 11 11 10 10 10 10 10 10 10 9 9 9 9 8 7 6 5 5 6 7 7 7 8 9 9 9 9 10 10 9 8 7 7 6 8 11 14 14 13 12 12 11 11 11 10 7 5 4 5 4 4 4 4 5 6 6 6 6 6 6 6 6
12 12 12 13 12 12 11 11 10 10 10 10 10 10 10 10 9 8 7 7 7 7 7 6 8 8 8 7 6 7 8 8 8 9 10 10 9 8 7 7 6 8 10 14 13 13 12 11 11 10 11 11 8 6 5 5 5 4 4 4 5 6 6 5 5 5 6 6 6
12 12 12 13 12 12 11 11 10 10 10 10 11 10 10 10 8 7 6 6 7 7 7 7 9 8 8 7 7 7 7 8 9 9 9 9 9 8 7 7 6 8 10 13 13 12 12 11 10 10 10 11 9 7 5 5 4 4 4 5 6 6 6 5 5 5 6 6 6
12 12 13 13 12 12 11 11 11 11 11 11 11 11 10 9 8 7 7 6 6 7 7 7 8 8 7 7 6 7 7 8 9 9 10 9 8 8 7 6 6 8 11 13 12 12 11 10 10 10 11 12 9 7 5 5 4 4 4 5 5 6 6 6 5 5 5 5 5
12 12 13 13 12 12 11 11 11 11 11 11 11 10 9 8 8 7 7 6 6 6 7 6 7 6 6 6 6 7 8 8 9 9 9 9 9 8 7 6 6 8 12 13 12 12 11 11 10 11 12 12 9 6 5 5 4 4 4 4 5 5 5 5 5 5 4 5 5
13 13 13 12 12 12 12 12 11 12 12 11 10 10 9 8 8 8 7 7 7 6 6 6 6 6 6 6 6 7 8 9 10 10 10 10 10 9 8 6 7 9 12 13 12 12 12 11 11 12 12 11 7 5 5 5 4 4 4 5 5 5 5 5 5 4 4 4 5
13 13 13 13 12 12 12 12 12 12 12 11 10 10 9 8 7 7 7 8 8 7 6 6 6 5 5 6 6 7 8 9 9 10 10 10 10 9 8 7 7 10 12 13 13 12 12 12 12 13 12 9 6 5 4 4 4 4 5 5 5 5 5 5 5 4 4 4 5
12 13 13 13 13 13 12 12 12 12 12 11 10 9 9 8 7 7 7 7 7 7 6 6 6 6 5 5 6 6 7 8 9 10 10 10 9 9 8 7 7 8 11 13 13 13 13 13 13 12 11 7 5 4 4 4 4 4 4 4 4 4 4 4 5 5 5 5 6
12 13 13 13 13 13 12 12 12 12 12 11 9 8 7 7 6 6 6 6 7 7 7 6 6 6 6 6 6 7 8 9 10 10 10 10 9 9 8 7 6 7 9 12 13 13 13 13 13 12 10 6 5 4 4 4 4 4 4 4 4 4 4 4 4 5 6 7 10
12 12 13 13 13 13 13 13 12 12 11 10 9 8 7 7 6 6 6 6 6 7 7 7 6 6 7 7 8 8 9 10 10 10 10 10 9 10 9 7 6 7 9 12 13 13 13 13 13 13 11 7 5 4 4 4 4 4 4 4 4 4 4 4 4 5 6 8 12
12 12 13 13 13 13 13 13 12 11 10 10 9 9 8 7 7 7 6 6 6 7 7 7 7 7 8 9 9 9 9 9 9 9 10 10 11 11 11 8 6 7 8 11 13 13 13 13 14 13 11 7 5 4 4 3 4 4 4 4 4 4 4 4 4 5 6 7 9
12 12 13 13 13 13 13 13 12 10 9 9 9 8 7 7 7 7 6 7 6 6 6 7 8 8 9 9 9 9 9 9 9 9 9 10 11 11 10 7 6 6 7 10 12 13 14 14 14 13 11 7 5 4 3 3 4 4 4 4 4 4 4 4 5 5 5 5 6
Wind_Direction
165 163 163 163 161 158 154 150 145 144 144 148 149 149 149 152 140 126 119 119 130 141 153 161 158 148 143 144 148 148 148 147 148 145 139 133 136 143 148 147 130 122 119 120 121 120 112 98 83 74 70 73 79 85 99 129 149 144 127 97 80 71 61 40 341 302 283 267 250
164 161 160 159 156 150 143 138 133 133 134 138 140 139 137 132 114 108 109 118 130 141 151 157 146 138 137 142 147 149 152 154 156 154 150 145 149 151 149 136 124 121 121 122 119 113 103 95 89 84 80 80 93 104 115 164 118 104 95 91 94 100 113 162 223 239 247 256 266
162 160 157 156 151 144 135 130 128 127 128 126 127 127 124 116 106 107 113 123 128 134 138 134 118 115 116 118 116 113 115 122 129 126 120 115 111 107 104 103 110 115 119 118 113 107 102 99 96 94 95 104 129 140 134 109 85 86 93 114 126 140 155 187 206 208 173 80 56
161 158 156 154 149 143 136 130 131 131 130 121 117 122 121 107 105 111 119 123 123 129 132 118 105 103 103 100 86 75 69 68 73 76 77 76 76 79 84 91 100 107 110 109 107 106 104 102 103 110 124 153 166 158 143 128 118 123 141 163 156 156 162 178 170 141 110 98 92
161 159 156 152 148 142 136 132 135 136 134 121 116 120 119 104 106 111 117 116 122 126 123 113 112 112 110 101 87 79 74 72 77 82 87 91 91 90 88 87 89 91 94 101 107 112 115 118 122 137 155 171 182 174 158 145 145 152 165 171 156 153 154 160 157 141 125 109 94
160 156 151 147 144 140 136 136 139 140 138 129 124 121 118 108 112 115 115 108 98 92 96 106 116 119 114 102 93 90 88 87 89 91 93 94 92 91 89 87 85 85 90 101 113 123 130 137 145 158 169 173 182 170 149 139 142 151 162 162 155 152 158 170 166 147 126 109 125
157 151 146 143 141 140 139 141 142 141 139 135 136 131 125 120 122 120 114 104 93 88 95 110 122 122 116 107 103 101 101 101 98 96 94 94 94 94 95 96 98 101 109 121 131 141 148 150 149 149 145 133 117 113 118 120 127 142 168 173 159 160 166 179 159 138 131 158 219
151 146 142 141 140 140 141 143 142 140 140 144 146 140 133 128 126 123 118 112 113 118 122 117 105 101 100 103 106 107 108 108 103 100 97 98 101 104 108 113 119 127 137 147 151 150 142 124 108 96 92 91 83 81 85 91 92 94 97 131 153 163 166 175 145 143 160 199 227
140 136 134 135 137 140 142 142 141 141 145 152 151 142 132 124 123 122 122 126 133 133 116 89 80 79 82 91 100 106 109 109 107 105 104 103 107 111 117 125 133 140 143 143 130 115 101 90 88 92 99 104 94 77 69 68 61 49 30 9 337 331 352 36 92 117 147 206 274
128 126 126 128 132 135 136 135 137 139 143 146 136 124 115 111 112 115 120 123 108 94 85 82 84 85 87 91 99 104 107 109 110 111 112 113 114 117 120 122 121 117 111 103 98 96 97 100 103 101 94 86 78 69 63 60 51 36 19 14 20 24 25 25 29 32 32 27 19
119 118 120 123 126 126 124 122 124 124 120 113 104 101 100 102 103 101 94 86 81 80 81 87 92 95 96 96 99 102 106 110 113 114 116 116 116 114 109 104 98 94 90 85 86 87 87 80 73 65 59 54 55 52 46 41 39 34 30 29 35 37 34 27 23 22 22 23 19
114 113 114 116 116 114 112 110 107 100 96 93 93 95 97 100 96 89 83 81 84 86 89 92 96 98 99 99 100 104 110 115 116 117 116 116 111 104 98 92 88 83 75 64 59 56 54 49 49 49 48 46 45 42 39 37 38 37 36 35 37 36 32 23 17 17 19 21 18
112 111 110 110 109 108 107 107 102 95 92 92 94 95 96 94 90 88 87 87 89 91 92 93 96 99 101 105 110 116 122 123 118 115 110 105 96 87 80 75 71 66 60 53 50 49 49 47 47 49 49 47 46 44 42 42 43 42 40 37 35 32 27 19 16 17 21 23 21
111 110 109 109 108 109 109 106 100 96 94 93 92 91 91 90 89 91 92 94 94 94 94 94 97 103 111 119 125 126 121 109 100 93 86 79 73 67 64 61 59 59 58 57 55 54 53 52 51 52 53 52 50 48 48 48 49 47 45 40 36 31 25 21 20 22 25 25 22
109 109 110 111 111 109 104 95 91 90 91 91 90 89 88 90 92 95 98 99 98 96 94 92 92 96 103 109 105 98 91 82 78 74 71 68 66 63 61 59 59 60 62 63 61 59 57 56 55 55 56 56 54 52 52 53 53 51 48 43 38 33 28 25 25 26 27 26 24
110 113 114 113 105 95 88 83 84 87 89 92 90 89 90 94 97 99 100 100 98 92 85 79 74 70 68 69 73 75 76 75 74 73 72 70 68 66 63 60 59 59 60 63 62 60 58 57 57 57 57 58 57 56 56 57 56 54 50 45 40 36 32 30 29 28 27 26 24
113 114 110 101 92 88 86 87 90 92 94 94 92 91 92 95 98 99 99 98 95 88 81 74 70 67 65 64 67 71 74 75 76 76 75 74 71 68 65 60 56 54 55 57 59 58 56 55 55 56 57 58 58 59 60 60 60 57 52 46 42 38 35 34 32 29 26 25 25
110 104 96 91 90 91 93 96 97 98 98 97 94 92 91 91 92 92 92 90 90 88 85 80 77 75 75 75 74 75 77 78 78 78 77 75 73 69 65 60 56 53 52 54 56 55 54 52 51 52 53 55 58 60 62 64 63 59 54 48 42 38 36 34 32 29 26 25 25
99 94 92 93 95 97 98 99 99 98 97 94 91 87 84 82 84 85 85 85 87 88 88 86 84 82 82 83 82 81 80 80 80 79 78 76 73 70 67 63 59 56 54 55 56 55 52 50 48 48 49 53 56 59 62 65 65 62 56 49 41 36 33 32 30 28 25 24 27
96 96 97 99 100 99 99 98 96 93 89 86 83 81 80 80 82 84 85 86 87 89 90 91 90 89 87 87 85 84 82 82 81 80 79 77 75 73 70 68 65 62 59 57 57 55 52 48 45 43 45 51 57 60 62 65 65 63 57 49 41 33 29 29 29 26 21 17 23
98 100 101 101 100 99 97 95 92 89 86 84 83 83 83 82 83 84 86 87 87 87 88 89 91 91 90 89 88 86 85 85 84 83 82 80 78 77 76 74 71 68 64 60 58 56 52 48 43 40 42 49 58 62 63 65 64 61 56 46 34 24 18 20 27 26 21 13 12
101 101 100 100 99 98 96 94 91 89 88 87 87 87 87 86 86 85 85 85 84 84 85 86 88 90 91 92 92 92 91 90 88 87 86 85 83 81 79 78 75 72 69 64 61 57 52 46 42 41 43 49 59 63 65 65 64 59 52 40 27 16 9 8 18 24 21 14 7
102 101 99 99 98 97 96 95 94 93 92 92 92 92 92 91 90 88 87 86 86 86 87 88 90 92 94 96 97 98 98 96 94 92 90 88 86 83 80 77 75 72 70 68 66 62 54 45 39 38 42 51 62 66 66 64 63 59 51 38 27 19 14 12 17 21 20 15 7
103 102 101 100 99 99 98 98 97 97 97 97 97 96 95 94 93 91 89 88 89 90 91 93 95 97 99 101 102 103 103 102 99 95 92 88 86 82 78 74 71 69 68 67 64 62 60 55 44 37 37 48 63 68 68 65 64 60 53 43 33 27 22 20 19 19 17 12 5
105 104 103 102 102 101 100 100 100 101 100 100 99 98 97 96 94 93 92 91 91 92 93 94 95 97 100 102 103 103 103 101 99 96 92 88 85 81 77 73 69 65 62 62 59 58 59 59 56 50 43 45 57 63 65 65 63 60 55 47 41 36 30 25 20 17 13 8 0
107 106 105 104 103 102 101 102 103 103 103 102 100 98 97 97 96 95 94 93 92 91 91 90 89 90 91 92 92 92 93 94 94 94 93 90 87 83 79 75 70 65 61 60 57 56 56 57 58 57 54 50 56 59 61 61 61 59 55 50 47 44 39 32 23 15 9 3 355
108 107 106 105 103 103 103 104 104 104 103 102 101 100 99 99 97 96 95 94 92 90 87 85 84 84 84 83 83 85 87 90 92 92 93 92 90 86 82 78 73 70 65 61 59 57 55 56 58 59 59 59 61 63 64 64 61 58 55 51 50 50 47 41 28 17 7 359 352
111 110 108 106 105 105 105 105 104 104 104 103 103 102 101 99 97 96 94 93 91 88 85 83 82 82 81 82 83 85 88 91 92 93 93 92 90 87 83 77 72 69 66 63 59 57 55 55 58 61 62 63 65 68 69 69 65 60 57 54 55 55 53 46 33 20 8 358 352
113 112 111 109 108 108 107 106 106 106 106 105 104 103 101 99 97 95 94 92 90 89 88 87 85 84 83 84 85 87 89 92 95 96 96 94 90 87 82 76 71 68 66 63 59 57 55 55 57 61 64 66 68 70 72 74 71 67 62 60 61 60 57 49 35 22 10 359 353
115 114 113 112 110 109 108 108 108 108 107 106 104 102 100 98 96 95 94 93 92 93 94 94 90 87 86 86 87 88 91 94 97 99 98 97 94 90 84 79 72 67 63 61 58 56 54 54 57 61 65 68 69 71 74 77 75 72 68 66 66 66 63 54 39 25 12 2 356
116 115 114 113 111 111 111 110 109 108 106 104 102 100 99 98 97 97 97 97 96 95 93 90 89 88 87 86 86 88 90 93 96 98 99 99 98 95 89 82 74 67 62 59 56 53 52 53 56 62 67 70 69 69 71 74 74 73 73 71 72 71 67 58 42 27 15 5 1
117 116 115 114 113 113 112 111 108 106 103 101 100 100 100 100 100 99 99 98 96 93 91 89 89 88 86 84 85 86 88 91 95 98 101 102 101 97 91 83 74 67 62 57 54 51 50 51 56 64 70 71 69 66 64 67 67 69 71 73 76 76 74 65 48 31 18 8 5
118 117 116 116 115 114 112 110 107 105 103 102 102 102 103 103 101 99 97 96 95 94 93 93 93 92 91 89 88 87 88 89 92 95 97 97 95 90 84 77 71 65 60 57 53 50 49 50 57 65 71 71 67 62 56 57 57 58 63 67 74 79 79 72 56 37 22 11 11
120 119 118 117 116 115 112 110 108 107 105 104 104 104 104 103 101 98 97 95 94 94 94 94 95 95 95 94 93 91 90 90 89 88 88 87 84 80 74 67 66 61 59 57 53 50 49 50 58 66 70 69 66 58 50 49 47 48 53 57 65 72 74 70 56 39 24 16 18
123 121 119 118 117 115 114 112 111 109 108 107 105 104 102 101 100 100 99 98 96 94 92 92 93 93 93 92 93 94 94 94 92 89 87 85 81 77 73 66 64 61 59 57 54 52 51 53 60 65 68 67 63 54 47 44 42 44 48 52 56 60 63 62 50 35 23 20 26
125 123 122 120 118 117 116 115 114 112 110 109 107 105 103 100 100 101 101 101 99 97 95 94 93 92 91 90 91 94 96 98 96 93 90 87 83 78 73 65 61 59 58 57 55 54 55 57 61 64 64 63 57 49 43 39 39 41 44 48 49 51 52 53 43 30 20 19 31
126 125 123 122 120 119 119 118 116 114 113 112 111 109 107 105 102 102 103 103 101 100 99 96 95 94 95 95 95 95 96 97 96 94 91 88 85 80 75 67 59 56 56 57 57 57 58 60 62 63 62 58 51 45 40 35 35 38 40 42 42 43 45 46 39 28 20 18 30
127 126 125 124 123 122 121 119 118 117 116 115 113 112 110 107 105 104 104 105 105 104 103 99 98 98 99 98 95 91 89 91 94 94 93 90 88 84 78 70 60 56 56 58 60 61 61 63 64 63 61 54 47 42 39 36 35 36 36 35 33 33 34 38 36 30 23 21 27
128 127 126 125 124 123 122 120 120 120 119 118 115 112 110 107 105 105 105 104 106 107 107 105 103 101 98 94 90 87 86 87 92 95 96 94 91 86 82 73 63 57 58 61 63 64 65 66 66 64 61 54 46 41 41 41 40 37 34 31 29 27 25 28 33 33 29 25 25
129 128 126 125 125 124 123 121 121 121 120 118 116 113 111 108 107 106 105 103 104 105 107 107 104 101 98 94 92 90 88 88 90 93 95 95 91 87 82 75 65 58 59 62 65 66 67 67 67 65 62 54 43 40 42 44 43 38 33 29 29 26 23 20 29 33 33 28 23
129 127 126 125 125 124 123 122 122 121 119 117 116 115 113 111 109 108 107 107 106 106 106 106 104 102 99 98 97 95 93 91 89 89 90 90 89 86 83 76 67 59 58 63 66 68 68 68 68 67 65 58 46 40 41 48 46 39 32 26 29 29 27 23 26 30 30 26 20